軌道要素
Epoch 2022 Jan. 21.0 TT = JDT 2459600.5
T 2023 Apr. 30.74516 TT Rudenko
q 2.0327660 (2000.0) P Q
z -0.0002819 Peri. 245.81042 -0.00829344 -0.47104165
+/-0.0000333 Node 244.76808 +0.77300071 -0.56260166
e 1.0005731 Incl. 77.18912 -0.63435095 -0.67941087
From 273 observations 2021 Nov. 8-2022 Mar. 24, mean residual 0".6.
|